Location: ????????
(60.5616°N, 46.8254°E)
Time: 08:58:35
(UTC+00:00)

USA 234 - Pass Details

Date: 18 February 2020
Orbit: 1101 x 1107 km, 123.0° (Epoch: 29 March)

Event Time Altitude Azimuth Distance (km) Brightness Sun altitude
Exits shadow 14:52:43 - 100° (E) 3,124 5.0 -8.5°
Reaches altitude 10° 14:53:09 10° 100° (E) 2,963 4.9 -8.5°
Maximum altitude 14:59:40 67° 183° (S) 1,188 3.5 -9.3°
Drops below altitude 10° 15:06:12 10° 267° (W) 2,967 7.2 -10.1°
Sets 15:08:43 0° 270° (W) 3,926 8.4 -10.4°
